Regional Weather Roundup
Issued by NWS

Home | Current Version | Previous Version | Text Only | Print | Product List | Glossary Off
Versions: 1 2 3 4 5 6 7 8 9 10 11 12 13 14 15 16 17 18 19 20 21 22 23 24 25 26 27 28 29 30 31 32 33 34 35 36 37 38 39 40 41 42 43 44 45 46 47 48 49 50

000
ASUS45 KSLC 271810
RWRUT

UTAH REGIONAL WEATHER ROUNDUP
NATIONAL WEATHER SERVICE SALT LAKE CITY UT
1200 PM MDT WED AUG 27 2014

UTZ001>011-023>025-271900-

NORTHERN UTAH

CITY           SKY/WX    TMP DP  RH WIND       PRES   REMARKS
HILL AFB       PTSUNNY   65  53  64 NW2       30.26S
LOGAN          PTSUNNY   65  53  65 CALM      30.24F
OGDEN          PTSUNNY   66  52  60 VRB5      30.25R
PROVO AIRPORT  PTSUNNY   66  52  59 VRB5      30.28R
SALT LAKE CITY PTSUNNY   68  52  56 CALM      30.23F
VERNAL         TSTM      56  50  80 W14G22    30.27R VSB 1
WENDOVER       SUNNY     72  45  37 SE10      30.24S
HEBER CITY     CLOUDY    64  48  55 CALM      30.27F
WEST JORDAN    PTSUNNY   68  59  73 CALM      30.26F

$$

UTZ012>022-026-027-271900-

SOUTHERN UTAH

CITY           SKY/WX    TMP DP  RH WIND       PRES   REMARKS
BRYCE CANYON   MOSUNNY   58  46  64 SE9       30.40S
CEDAR CITY     MOSUNNY   69  43  38 CALM      30.30S
MILFORD        SUNNY     68  47  46 CALM      30.28F
MOAB/CYNLANDS  MOSUNNY   70  54  56 NW12G21   30.23F
PRICE          CLOUDY    56  49  77 E10       30.32S
ST GEORGE      MOCLDY    73  52  46 NW5       30.20F
KANAB            N/A     68  52  56 SW6       30.32F

$$

REGIONAL REPORTS     COLORADO/ARIZONA

CITY           SKY/WX    TMP DP  RH WIND       PRES   REMARKS
CRAIG, CO      HVY RAIN  58  52  80 S8        30.28F
GRAND JUNCTION PTSUNNY   63  54  72 NW22G28   30.25R
RIFLE          MOSUNNY   65  52  62 N7        30.27F
MONTROSE       MOSUNNY   67  52  58 CALM      30.30F
CORTEZ         MOSUNNY   66  52  60 SW6       30.34F
PAGE, AZ       MOSUNNY   70  50  49 N7        30.27F
GRAND CANYON   PTSUNNY   68  50  52 W7G14     30.38
KINGMAN        SUNNY     84  57  39 VRB6      30.17S
FLAGSTAFF      MOSUNNY   68  48  48 VRB5      30.41F

$$

REGIONAL REPORTS    NEVADA/IDAHO/WYOMING

CITY           SKY/WX    TMP DP  RH WIND       PRES   REMARKS
LAS VEGAS, NV  SUNNY     86  45  23 E5        30.08S
ELY            SUNNY     66  41  40 VRB6      30.34S
ELKO           SUNNY     70  43  37 CALM      30.28F
POCATELLO, ID  MOSUNNY   72  51  47 W9        30.23F
BURLEY         SUNNY     73  50  44 CALM      30.21S
EVANSTON, WY   CLOUDY    56  46  69 N3        30.34F
ROCK SPRINGS   CLOUDY    56  49  77 N15       30.31F

$$



USA.gov is the U.S. government's official web portal to all federal, state and local government web resources and services.